Zurück zum Katalog

STARLINK-2472

AktivKommunikationVLEO
NORAD 48130·PAYLOAD·🇺🇸 United States

Gestartet Apr 7, 2021 von Cape Canaveral Space Force Station

Loading…

Nächste Überflüge (nächste 24 Stunden)

TLE

AktuellSource: CelesTrak SupGP

Epoche: Sep 14, 2026, 20:21 UTC

1 48130C 21027AQ  26257.84840278  .00010205  00000+0  32805-3 0  2576
2 48130  53.1604   7.8841 0001039  84.0698 247.0227 15.31708686    13

Verfolge STARLINK-2472 in Echtzeit mit AllMySat

Download on the App Store